Location: Rumah Apan
(2.7833°N, 113.9500°E)
Time: 00:10:26
(UTC+00:00)

Cosmos 1408 - Pass Details

Date: 25 July 2021
Orbit: 467 x 489 km, 82.6° (Epoch: 21 September)

Event Time Altitude Azimuth Distance (km) Brightness Sun altitude
Exits shadow 11:29:26 10° 159° (SSE) 1,688 4.9 -12.8°
Reaches altitude 10° 11:29:27 10° 159° (SSE) 1,677 4.9 -12.8°
Maximum altitude 11:32:47 33° 94° (E) 839 3.2 -13.6°
Drops below altitude 10° 11:36:06 10° 28° (NNE) 1,665 5.2 -14.4°
Sets 11:38:19 0° 19° (NNE) 2,539 6.3 -14.9°
